Date String (YYYY-MM-DD hh:mm:ss) UTC,Instrument flags,absolute air pressure of the measurement (hPa),sample flow rate (lpm),inlet stack bypass flow (lpm),air temperature of the measurement (°C),ambient temperature measured by the external sensor (°C),aerosol sample conditioner tube jacket temperature (°C),OPC LED temperature (°C),internal box temperature (°C),relative humidity of the measurement (%),span deviation,mass concentration of particles derived from Lorenz-Mie calculation of OPC scattering (μg/m³),mass concentration of particles derived from Lorenz-Mie calculation of OPC scattering (μg/m³),mass concentration of particles derived from Lorenz-Mie calculation of OPC scattering (μg/m³)
DateTimeUTC,F1_M11,P_M11,Q1_M11,Q2_M11,T1_M11,T2_M11,T3_M11,T4_M11,T5_M11,U1_M11,ZSPAN_M11,X2_M11,X0_M11,X1_M11
2024-02-18 13:00:00,SystemResetWarning,0826.4,5.00,000.00,018.4,017.7,000.0,026.9,020.0,10.6,0000.0,0001.86,0002.73,0001.61
2024-02-18 13:01:00,SystemResetWarning,0826.3,4.99,000.00,018.4,017.6,000.0,026.9,020.0,10.6,0000.0,0001.81,0002.65,0001.59
2024-02-18 13:02:00,SystemResetWarning,0826.3,5.00,000.00,018.4,017.6,000.0,026.9,020.0,10.5,0000.0,0001.79,0002.59,0001.59
2024-02-18 13:03:00,SystemResetWarning,0826.3,5.00,000.00,018.4,017.6,000.0,026.9,020.0,10.5,0000.0,0001.82,0002.63,0001.61
2024-02-18 13:04:00,SystemResetWarning,0826.3,5.00,000.00,018.4,017.9,000.0,027.0,020.2,10.5,0000.0,0001.85,0002.70,0001.62
2024-02-18 13:05:00,SystemResetWarning,0826.4,5.02,000.00,018.6,018.7,000.0,027.1,020.7,10.4,0000.0,0001.88,0002.75,0001.63
2024-02-18 13:06:00,SystemResetWarning,0826.4,4.98,000.00,018.8,019.1,000.0,027.1,020.9,10.4,0000.0,0001.90,0002.78,0001.64
2024-02-18 13:07:00,SystemResetWarning,0826.4,5.01,000.00,018.8,018.9,000.0,027.1,020.7,10.4,0000.0,0001.91,0002.81,0001.64
2024-02-18 13:08:00,SystemResetWarning,0826.3,5.01,000.00,018.7,018.7,000.0,027.0,020.5,10.5,0000.0,0001.87,0002.70,0001.63
2024-02-18 13:09:00,SystemResetWarning,0826.3,4.99,000.00,018.7,018.5,000.0,027.0,020.3,10.5,0000.0,0001.87,0002.71,0001.61
2024-02-18 13:10:00,SystemResetWarning,0826.2,4.98,000.00,018.6,018.4,000.0,027.0,020.2,10.5,0000.0,0001.85,0002.68,0001.61
2024-02-18 13:11:00,SystemResetWarning,0826.3,5.01,000.00,018.6,018.2,000.0,026.9,020.1,10.5,0000.0,0001.82,0002.44,0001.60
2024-02-18 13:12:00,SystemResetWarning,0826.2,5.00,000.00,018.5,018.1,000.0,026.9,020.1,10.4,0000.0,0001.83,0002.44,0001.60
2024-02-18 13:13:00,SystemResetWarning,0826.3,5.00,000.00,018.5,018.0,000.0,026.9,020.0,10.4,0000.0,0001.83,0002.44,0001.59
2024-02-18 13:14:00,SystemResetWarning,0826.3,5.00,000.00,018.5,017.8,000.0,026.9,020.0,10.3,0000.0,0001.81,0002.43,0001.57
2024-02-18 13:15:00,SystemResetWarning,0826.2,5.00,000.00,018.4,017.8,000.0,027.0,020.0,10.4,0000.0,0001.79,0002.41,0001.56
2024-02-18 13:16:00,SystemResetWarning,0826.2,4.99,000.00,018.4,017.7,000.0,027.0,020.0,10.4,0000.0,0001.73,0002.27,0001.53
2024-02-18 13:17:00,SystemResetWarning,0826.2,4.99,000.00,018.4,017.6,000.0,027.0,020.0,10.3,0000.0,0001.72,0002.24,0001.52
2024-02-18 13:18:00,SystemResetWarning,0826.2,5.00,000.00,018.4,017.6,000.0,027.0,020.0,09.9,0000.0,0001.68,0002.14,0001.51
2024-02-18 13:19:00,SystemResetWarning,0826.2,5.00,000.00,018.4,017.6,000.0,027.0,020.1,09.5,0000.0,0001.70,0002.69,0001.51
2024-02-18 13:20:00,SystemResetWarning,0826.2,5.01,000.00,018.5,018.3,000.0,027.1,020.5,09.1,0000.0,0001.71,0002.93,0001.51
2024-02-18 13:21:00,SystemResetWarning,0826.2,5.00,000.00,018.7,019.1,000.0,027.2,021.0,08.7,0000.0,0001.69,0002.87,0001.50
2024-02-18 13:22:00,SystemResetWarning,0826.2,4.99,000.00,018.8,019.0,000.0,027.1,020.8,08.3,0000.0,0001.68,0002.80,0001.49
2024-02-18 13:23:00,SystemResetWarning,0826.2,4.99,000.00,018.8,018.8,000.0,027.1,020.6,08.2,0000.0,0001.69,0002.84,0001.49
2024-02-18 13:24:00,SystemResetWarning,0826.2,5.00,000.00,018.7,018.7,000.0,027.0,020.4,08.4,0000.0,0001.67,0002.87,0001.48
2024-02-18 13:25:00,SystemResetWarning,0826.1,5.00,000.00,018.7,018.5,000.0,027.0,020.3,08.5,0000.0,0001.70,0003.00,0001.47
2024-02-18 13:26:00,SystemResetWarning,0826.1,5.00,000.00,018.6,018.3,000.0,027.0,020.2,08.4,0000.0,0001.69,0002.98,0001.45
2024-02-18 13:27:00,SystemResetWarning,0826.0,5.01,000.00,018.6,018.2,000.0,026.9,020.1,07.9,0000.0,0001.65,0002.94,0001.42
2024-02-18 13:28:00,SystemResetWarning,0826.0,5.00,000.00,018.5,018.0,000.0,026.9,020.1,08.0,0000.0,0001.60,0002.89,0001.37
2024-02-18 13:29:00,SystemResetWarning,0826.0,5.00,000.00,018.5,018.0,000.0,026.9,020.0,07.9,0000.0,0001.55,0002.85,0001.31
2024-02-18 13:30:00,SystemResetWarning,0826.0,5.00,000.00,018.5,017.9,000.0,026.9,020.0,07.9,0000.0,0001.45,0002.29,0001.22
2024-02-18 13:31:00,SystemResetWarning,0826.0,5.00,000.00,018.4,017.8,000.0,026.9,020.0,07.9,0000.0,0001.36,0001.98,0001.13
2024-02-18 13:32:00,SystemResetWarning,0826.1,5.00,000.00,018.4,017.7,000.0,026.9,020.0,07.9,0000.0,0001.27,0001.90,0001.05
2024-02-18 13:33:00,SystemResetWarning,0826.1,5.00,000.00,018.4,017.7,000.0,027.0,020.0,07.9,0000.0,0001.21,0001.83,0000.99
2024-02-18 13:34:00,SystemResetWarning,0826.2,5.00,000.00,018.4,017.6,000.0,026.9,020.0,08.1,0000.0,0001.11,0002.09,0000.91
2024-02-18 13:35:00,SystemResetWarning,0826.2,5.00,000.00,018.4,017.6,000.0,026.9,020.0,08.2,0000.0,0001.03,0003.08,0000.83
2024-02-18 13:36:00,SystemResetWarning,0826.2,5.00,000.00,018.3,017.6,000.0,026.9,020.1,08.0,0000.0,0000.94,0002.94,0000.76
2024-02-18 13:37:00,SystemResetWarning,0826.2,5.01,000.00,018.4,018.2,000.0,027.1,020.4,07.9,0000.0,0000.83,0002.77,0000.69
2024-02-18 13:38:00,SystemResetWarning,0826.2,5.00,000.00,018.7,019.0,000.0,027.1,020.9,07.7,0000.0,0000.79,0002.73,0000.64
2024-02-18 13:39:00,SystemResetWarning,0826.2,4.98,000.00,018.8,019.0,000.0,027.1,020.8,07.7,0000.0,0000.73,0002.64,0000.59
2024-02-18 13:40:00,SystemResetWarning,0826.2,5.00,000.00,018.7,018.8,000.0,027.0,020.6,07.7,0000.0,0000.72,0002.65,0000.56
2024-02-18 13:41:00,SystemResetWarning,0826.2,5.01,000.00,018.7,018.6,000.0,027.0,020.3,07.6,0000.0,0000.71,0002.65,0000.55
2024-02-18 13:42:00,SystemResetWarning,0826.2,5.01,000.00,018.6,018.4,000.0,027.0,020.2,07.9,0000.0,0000.74,0002.72,0000.56
2024-02-18 13:43:00,SystemResetWarning,0826.2,5.00,000.00,018.6,018.2,000.0,026.9,020.1,07.9,0000.0,0000.77,0002.72,0000.57
2024-02-18 13:44:00,SystemResetWarning,0826.2,5.00,000.00,018.5,018.1,000.0,026.9,020.1,07.9,0000.0,0000.77,0002.73,0000.56
2024-02-18 13:45:00,SystemResetWarning,0826.2,4.99,000.00,018.5,018.0,000.0,026.9,020.0,07.7,0000.0,0000.76,0002.53,0000.56
2024-02-18 13:46:00,SystemResetWarning,0826.2,5.00,000.00,018.5,017.9,000.0,026.9,020.0,07.8,0000.0,0000.78,0001.25,0000.56
2024-02-18 13:47:00,SystemResetWarning,0826.2,4.99,000.00,018.4,017.8,000.0,026.9,020.0,08.0,0000.0,0000.78,0001.27,0000.55
2024-02-18 13:48:00,SystemResetWarning,0826.3,5.01,000.00,018.4,017.7,000.0,026.9,020.0,08.1,0000.0,0000.81,0001.34,0000.56
2024-02-18 13:49:00,SystemResetWarning,0826.3,5.01,000.00,018.4,017.7,000.0,026.9,020.0,08.3,0000.0,0000.80,0001.34,0000.56
2024-02-18 13:50:00,SystemResetWarning,0826.3,4.99,000.00,018.4,017.6,000.0,026.9,020.0,08.6,0000.0,0000.80,0001.34,0000.55
2024-02-18 13:51:00,SystemResetWarning,0826.2,5.00,000.00,018.4,017.7,000.0,027.0,020.1,08.9,0000.0,0000.76,0001.38,0000.54
2024-02-18 13:52:00,SystemResetWarning,0826.3,5.01,000.00,018.5,018.3,000.0,027.1,020.5,09.1,0000.0,0000.73,0001.28,0000.53
2024-02-18 13:53:00,SystemResetWarning,0826.4,5.00,000.00,018.7,019.0,000.0,027.1,020.9,09.2,0000.0,0000.67,0001.14,0000.51
2024-02-18 13:54:00,SystemResetWarning,0826.3,4.99,000.00,018.8,018.9,000.0,027.1,020.7,09.3,0000.0,0000.64,0001.04,0000.50
2024-02-18 13:55:00,SystemResetWarning,0826.2,5.00,000.00,018.7,018.8,000.0,027.0,020.5,09.2,0000.0,0000.67,0001.31,0000.51
2024-02-18 13:56:00,SystemResetWarning,0826.2,5.01,000.00,018.7,018.6,000.0,027.0,020.3,09.1,0000.0,0000.71,0001.55,0000.53
2024-02-18 13:57:00,SystemResetWarning,0826.2,4.99,000.00,018.6,018.4,000.0,027.0,020.2,09.0,0000.0,0000.75,0001.60,0000.54
2024-02-18 13:58:00,SystemResetWarning,0826.2,4.99,000.00,018.6,018.2,000.0,026.9,020.1,09.1,0000.0,0000.77,0001.63,0000.56
2024-02-18 13:59:00,SystemResetWarning,0826.3,5.00,000.00,018.5,018.1,000.0,026.9,020.1,09.1,0000.0,0000.80,0001.75,0000.59
